timestamp,wind_dir_avg,wind_spd_avg,wind_spd_max_dir,wind_spd_gust,battery_voltage,lat,long
2022-08-16 00:04:00+00:00,238.0,6.0,238.0,6.95,12.65,47.59359,-54.27349
2022-08-16 00:14:01+00:00,239.0,6.38,243.0,7.5,12.41,47.59359,-54.27349
2022-08-16 00:24:01+00:00,244.0,6.58,248.0,7.65,12.41,47.59359,-54.27349
2022-08-16 00:34:01+00:00,239.0,6.26,242.0,8.12,12.41,47.59359,-54.27349
2022-08-16 00:44:01+00:00,238.0,6.69,241.0,7.67,12.41,47.59359,-54.27349
2022-08-16 00:54:01+00:00,236.0,6.45,238.0,6.98,12.41,47.59359,-54.27349
2022-08-16 01:04:01+00:00,241.0,5.71,237.0,6.31,12.41,47.59359,-54.27349
2022-08-16 01:14:00+00:00,243.0,7.67,243.0,8.17,12.41,47.59359,-54.27349
2022-08-16 01:24:00+00:00,245.0,6.9,249.0,7.66,12.41,47.59359,-54.27349
2022-08-16 01:34:00+00:00,257.0,5.88,256.0,6.85,12.41,47.59359,-54.27349
2022-08-16 01:44:00+00:00,239.0,5.72,241.0,7.11,12.41,47.59359,-54.27349
2022-08-16 01:54:00+00:00,237.0,5.0,231.0,5.85,12.41,47.59359,-54.27349
2022-08-16 02:04:00+00:00,239.0,5.44,244.0,6.3,12.41,47.59359,-54.27349
2022-08-16 02:14:00+00:00,245.0,5.67,240.0,6.79,12.41,47.59359,-54.27349
2022-08-16 02:24:00+00:00,244.0,4.07,239.0,4.66,12.41,47.59359,-54.27349
2022-08-16 02:34:00+00:00,237.0,4.72,232.0,5.33,12.41,47.59359,-54.27349
2022-08-16 02:44:00+00:00,245.0,5.58,245.0,6.43,12.41,47.59359,-54.27349
2022-08-16 02:54:00+00:00,241.0,5.7,237.0,6.4,12.41,47.59359,-54.27349
2022-08-16 03:04:00+00:00,243.0,5.5,244.0,6.42,12.41,47.59359,-54.27349
2022-08-16 03:14:01+00:00,243.0,5.21,242.0,5.74,12.41,47.59359,-54.27349
2022-08-16 03:24:01+00:00,236.0,4.3,232.0,5.02,12.41,47.59359,-54.27349
2022-08-16 03:34:01+00:00,239.0,5.0,246.0,6.48,12.41,47.59359,-54.27349
2022-08-16 03:44:01+00:00,252.0,4.03,250.0,4.48,12.41,47.59359,-54.27349
2022-08-16 03:54:01+00:00,259.0,4.31,263.0,4.6,12.41,47.59359,-54.27349
2022-08-16 04:04:01+00:00,245.0,4.52,243.0,4.8,12.41,47.59359,-54.27349
2022-08-16 04:14:01+00:00,239.0,3.63,235.0,4.23,12.41,47.59359,-54.27349
2022-08-16 04:24:01+00:00,235.0,4.12,233.0,4.59,12.41,47.59359,-54.27349
2022-08-16 04:34:01+00:00,236.0,4.09,237.0,4.54,12.41,47.59359,-54.27349
2022-08-16 04:44:01+00:00,235.0,3.67,239.0,4.51,12.41,47.59359,-54.27349
2022-08-16 04:54:01+00:00,239.0,3.72,250.0,5.7,12.41,47.59359,-54.27349
2022-08-16 05:04:01+00:00,238.0,3.49,241.0,4.22,12.41,47.59359,-54.27349
2022-08-16 05:14:01+00:00,236.0,3.84,246.0,5.33,12.41,47.59359,-54.27349
2022-08-16 05:24:01+00:00,242.0,3.45,251.0,5.25,12.41,47.59359,-54.27349
2022-08-16 05:34:01+00:00,239.0,3.3,244.0,4.23,12.41,47.59359,-54.27349
2022-08-16 05:44:01+00:00,239.0,3.82,251.0,4.74,12.41,47.59359,-54.27349
2022-08-16 05:54:01+00:00,241.0,3.7,238.0,4.25,12.41,47.59359,-54.27349
2022-08-16 06:04:01+00:00,253.0,3.24,261.0,3.95,12.41,47.59359,-54.27349
2022-08-16 06:14:00+00:00,252.0,2.91,257.0,3.41,12.33,47.59359,-54.27349
2022-08-16 06:24:00+00:00,220.0,1.85,237.0,2.79,12.33,47.59359,-54.27349
2022-08-16 06:34:00+00:00,239.0,3.63,249.0,5.74,12.33,47.59359,-54.27349
2022-08-16 06:44:00+00:00,234.0,1.71,245.0,2.49,12.33,47.59359,-54.27349
2022-08-16 06:54:00+00:00,257.0,3.14,260.0,4.62,12.33,47.59359,-54.27349
2022-08-16 07:04:00+00:00,262.0,1.78,266.0,2.96,12.33,47.59359,-54.27349
2022-08-16 07:14:01+00:00,263.0,1.35,264.0,1.8,12.33,47.59359,-54.27349
2022-08-16 07:24:01+00:00,272.0,1.49,278.0,1.73,12.33,47.59359,-54.27349
2022-08-16 07:34:01+00:00,259.0,1.76,259.0,2.7,12.33,47.59359,-54.27349
2022-08-16 07:44:01+00:00,308.0,0.79,303.0,0.99,12.33,47.59359,-54.27349
2022-08-16 07:54:01+00:00,293.0,1.12,295.0,1.3,12.33,47.59359,-54.27349
2022-08-16 08:04:01+00:00,319.0,1.4,318.0,1.71,12.33,47.59359,-54.27349
2022-08-16 08:14:01+00:00,335.0,1.17,341.0,1.34,12.41,47.59359,-54.27349
2022-08-16 08:24:01+00:00,340.0,1.18,332.0,1.58,12.41,47.59359,-54.27349
2022-08-16 08:34:01+00:00,350.0,0.95,345.0,1.21,12.41,47.59359,-54.27349
2022-08-16 08:44:01+00:00,330.0,1.0,331.0,1.28,12.41,47.59359,-54.27349
2022-08-16 08:54:01+00:00,303.0,0.92,310.0,1.09,12.41,47.59359,-54.27349
2022-08-16 09:04:01+00:00,295.0,1.28,302.0,1.51,12.41,47.59359,-54.27349
2022-08-16 09:14:00+00:00,302.0,1.77,295.0,2.42,12.33,47.59359,-54.27349
2022-08-16 09:24:00+00:00,307.0,1.19,312.0,1.35,12.33,47.59359,-54.27349
2022-08-16 09:34:00+00:00,298.0,1.42,296.0,1.58,12.33,47.59359,-54.27349
2022-08-16 09:44:00+00:00,287.0,0.93,290.0,1.05,12.33,47.59359,-54.27349
2022-08-16 09:54:00+00:00,293.0,1.24,297.0,1.38,12.33,47.59359,-54.27349
2022-08-16 10:04:00+00:00,313.0,1.64,318.0,1.88,12.33,47.59359,-54.27349
2022-08-16 10:14:01+00:00,328.0,1.86,326.0,2.08,12.41,47.59359,-54.27349
2022-08-16 10:24:01+00:00,356.0,2.15,356.0,2.39,12.41,47.59359,-54.27349
2022-08-16 10:34:01+00:00,19.0,3.41,31.0,3.89,12.41,47.59359,-54.27349
2022-08-16 10:44:01+00:00,34.0,7.32,36.0,7.88,12.41,47.59359,-54.27349
2022-08-16 10:54:01+00:00,30.0,7.31,30.0,7.7,12.41,47.59359,-54.27349
2022-08-16 11:04:01+00:00,29.0,6.73,34.0,7.75,12.41,47.59359,-54.27349
2022-08-16 11:14:01+00:00,36.0,7.36,44.0,8.13,13.05,47.59359,-54.27349
2022-08-16 11:24:01+00:00,27.0,7.13,35.0,8.92,13.05,47.59359,-54.27349
2022-08-16 11:34:01+00:00,31.0,7.3,35.0,8.01,13.05,47.59359,-54.27349
2022-08-16 11:44:01+00:00,35.0,6.48,30.0,6.99,13.05,47.59359,-54.27349
2022-08-16 11:54:01+00:00,39.0,6.18,38.0,6.82,13.05,47.59359,-54.27349
2022-08-16 12:04:01+00:00,37.0,6.25,44.0,7.6,13.05,47.59359,-54.27349
2022-08-16 12:14:00+00:00,42.0,6.47,41.0,7.21,14.08,47.59359,-54.27349
2022-08-16 12:24:00+00:00,37.0,5.97,34.0,6.67,14.08,47.59359,-54.27349
2022-08-16 12:34:00+00:00,38.0,6.66,43.0,7.51,14.08,47.59359,-54.27349
2022-08-16 12:44:00+00:00,42.0,6.19,50.0,6.98,14.08,47.59359,-54.27349
2022-08-16 12:54:00+00:00,47.0,5.64,48.0,6.3,14.08,47.59359,-54.27349
2022-08-16 13:04:00+00:00,51.0,6.62,50.0,7.37,14.08,47.59359,-54.27349
2022-08-16 13:14:00+00:00,50.0,6.59,46.0,7.22,13.6,47.59359,-54.27349
2022-08-16 13:24:00+00:00,54.0,6.48,57.0,7.65,13.6,47.59359,-54.27349
2022-08-16 13:34:00+00:00,59.0,5.93,58.0,6.48,13.6,47.59359,-54.27349
2022-08-16 13:44:00+00:00,57.0,6.55,54.0,7.44,13.6,47.59359,-54.27349
2022-08-16 13:54:00+00:00,56.0,6.17,55.0,6.86,13.6,47.59359,-54.27349
2022-08-16 14:04:00+00:00,58.0,6.36,61.0,7.16,13.6,47.59359,-54.27349
2022-08-16 14:14:00+00:00,58.0,5.18,54.0,5.87,13.76,47.59359,-54.27349
2022-08-16 14:24:00+00:00,57.0,5.64,55.0,6.48,13.76,47.59359,-54.27349
2022-08-16 14:34:00+00:00,54.0,5.12,59.0,5.64,13.76,47.59359,-54.27349
2022-08-16 14:44:00+00:00,53.0,3.97,51.0,4.71,13.76,47.59359,-54.27349
2022-08-16 14:54:00+00:00,46.0,3.66,44.0,4.38,13.76,47.59359,-54.27349
2022-08-16 15:04:00+00:00,70.0,2.87,70.0,4.21,13.76,47.59359,-54.27349
2022-08-16 15:14:00+00:00,63.0,2.44,61.0,2.8,14.08,47.59359,-54.27349
2022-08-16 15:24:00+00:00,57.0,2.65,53.0,3.16,14.08,47.59359,-54.27349
2022-08-16 15:34:00+00:00,57.0,2.51,56.0,2.75,14.08,47.59359,-54.27349
2022-08-16 15:44:00+00:00,72.0,2.88,76.0,4.22,14.08,47.59359,-54.27349
2022-08-16 15:54:00+00:00,112.0,2.74,125.0,4.31,14.08,47.59359,-54.27349
2022-08-16 16:04:00+00:00,85.0,3.5,84.0,5.04,14.08,47.59359,-54.27349
2022-08-16 16:14:00+00:00,98.0,3.46,102.0,4.69,13.92,47.59359,-54.27349
2022-08-16 16:24:00+00:00,102.0,4.37,112.0,5.75,13.92,47.59359,-54.27349
2022-08-16 16:34:00+00:00,92.0,4.17,80.0,7.24,13.92,47.59359,-54.27349
2022-08-16 16:44:00+00:00,74.0,5.22,76.0,7.3,13.92,47.59359,-54.27349
2022-08-16 16:54:00+00:00,78.0,4.52,55.0,8.52,13.92,47.59359,-54.27349
2022-08-16 17:04:00+00:00,75.0,4.87,62.0,6.11,13.92,47.59359,-54.27349
2022-08-16 17:14:00+00:00,68.0,5.33,65.0,6.96,13.76,47.59359,-54.27349
2022-08-16 17:24:00+00:00,78.0,4.65,59.0,6.15,13.76,47.59359,-54.27349
2022-08-16 17:34:00+00:00,74.0,6.76,63.0,9.0,13.76,47.59359,-54.27349
2022-08-16 17:44:00+00:00,73.0,5.27,67.0,7.99,13.76,47.59359,-54.27349
2022-08-16 17:54:00+00:00,75.0,5.49,64.0,7.41,13.76,47.59359,-54.27349
2022-08-16 18:04:00+00:00,74.0,5.2,67.0,6.93,13.76,47.59359,-54.27349
2022-08-16 18:14:00+00:00,72.0,5.36,69.0,7.2,13.68,47.59359,-54.27349
2022-08-16 18:24:00+00:00,67.0,5.76,72.0,6.84,13.68,47.59359,-54.27349
2022-08-16 18:34:00+00:00,74.0,4.13,48.0,5.91,13.68,47.59359,-54.27349
2022-08-16 18:44:00+00:00,70.0,7.28,68.0,8.01,13.68,47.59359,-54.27349
2022-08-16 18:54:00+00:00,68.0,7.16,66.0,7.96,13.68,47.59359,-54.27349
2022-08-16 19:04:00+00:00,61.0,7.16,58.0,8.67,13.68,47.59359,-54.27349
2022-08-16 19:14:00+00:00,70.0,7.11,69.0,8.5,13.44,47.59359,-54.27349
2022-08-16 19:24:00+00:00,68.0,6.66,68.0,7.23,13.44,47.59359,-54.27349
2022-08-16 19:34:00+00:00,66.0,6.77,65.0,7.74,13.44,47.59359,-54.27349
2022-08-16 19:44:00+00:00,63.0,6.56,67.0,7.53,13.44,47.59359,-54.27349
2022-08-16 19:54:00+00:00,56.0,6.61,59.0,7.63,13.44,47.59359,-54.27349
2022-08-16 20:04:00+00:00,57.0,6.73,56.0,7.46,13.44,47.59359,-54.27349
2022-08-16 20:14:00+00:00,53.0,7.14,53.0,8.27,13.37,47.59359,-54.27349
2022-08-16 20:24:00+00:00,60.0,6.26,68.0,7.16,13.37,47.59359,-54.27349
2022-08-16 20:34:00+00:00,67.0,5.56,65.0,6.57,13.37,47.59359,-54.27349
2022-08-16 20:44:00+00:00,59.0,5.32,56.0,6.17,13.37,47.59359,-54.27349
2022-08-16 20:54:00+00:00,72.0,5.01,70.0,5.95,13.37,47.59359,-54.27349
2022-08-16 21:04:00+00:00,70.0,5.06,69.0,5.98,13.37,47.59359,-54.27349
2022-08-16 21:14:01+00:00,70.0,5.58,72.0,6.19,13.37,47.59359,-54.27349
2022-08-16 21:24:01+00:00,71.0,5.81,70.0,6.55,13.37,47.59359,-54.27349
2022-08-16 21:34:01+00:00,60.0,6.28,61.0,6.8,13.37,47.59359,-54.27349
2022-08-16 21:44:01+00:00,71.0,3.69,76.0,5.45,13.37,47.59359,-54.27349
2022-08-16 21:54:01+00:00,72.0,4.5,73.0,6.45,13.37,47.59359,-54.27349
2022-08-16 22:04:01+00:00,67.0,4.24,62.0,6.06,13.37,47.59359,-54.27349
2022-08-16 22:14:00+00:00,76.0,3.98,77.0,5.59,12.97,47.59359,-54.27349
2022-08-16 22:24:00+00:00,64.0,4.79,70.0,5.79,12.97,47.59359,-54.27349
2022-08-16 22:34:00+00:00,63.0,5.08,64.0,6.12,12.97,47.59359,-54.27349
2022-08-16 22:44:00+00:00,67.0,5.23,66.0,6.05,12.97,47.59359,-54.27349
2022-08-16 22:54:00+00:00,60.0,5.14,65.0,5.75,12.97,47.59359,-54.27349
2022-08-16 23:04:00+00:00,68.0,4.36,70.0,4.73,12.97,47.59359,-54.27349
2022-08-16 23:14:00+00:00,66.0,4.35,54.0,5.56,12.41,47.59359,-54.27349
2022-08-16 23:24:00+00:00,70.0,6.53,68.0,6.97,12.41,47.59359,-54.27349
2022-08-16 23:34:00+00:00,66.0,7.03,61.0,7.43,12.41,47.59359,-54.27349
2022-08-16 23:44:00+00:00,59.0,7.02,57.0,8.02,12.41,47.59359,-54.27349
2022-08-16 23:54:00+00:00,59.0,6.69,57.0,7.56,12.41,47.59359,-54.27349
